Location: Newark
(38.7000°N, 9.1833°W)
Time: 20:48:05
(UTC+00:00)

Envisat - Pass Details

Date: 24 October 2019
Orbit: 764 x 766 km, 98.1° (Epoch: 21 November)

Event Time Altitude Azimuth Distance (km) Brightness Sun altitude
Rises 18:19:02 0° 154° (SSE) 3,219 6.1 -7.0°
Reaches altitude 10° 18:21:22 10° 150° (SSE) 2,296 5.3 -7.5°
Maximum altitude 18:26:18 56° 73° (ENE) 913 3.1 -8.4°
Drops below altitude 10° 18:31:16 10° 356° (N) 2,311 5.5 -9.4°
Sets 18:33:37 0° 353° (N) 3,241 6.3 -9.8°
